Location: East Guldeford
(50.9500°N, 0.7500°E)
Time: 09:45:42
(UTC+00:00)

Cosmos 1666 - Pass Details

Date: 12 May 2021
Orbit: 495 x 519 km, 82.5° (Epoch: 16 June)

Event Time Altitude Azimuth Distance (km) Brightness Sun altitude
Rises 20:34:31 0° 355° (N) 2,604 7.1 -8.2°
Reaches altitude 10° 20:36:46 10° 4° (N) 1,713 5.9 -8.4°
Maximum altitude 20:40:17 38° 74° (ENE) 776 3.4 -8.8°
Enters shadow 20:43:21 13° 141° (SE) 1,536 4.4 -9.2°
